Vorticity
1 6 -1 8 5 7 13 14 6 27 -7 6 8 13 -12 14 6 11 9 1 2 2
14 1 9 10 16 4 1 5 7 3 7 7 19 0 7 5 8 9 3 1 6 7
2 -0 9 4 7 2 -1 8 7 5 11 9 15 3 6 9 7 1 2 6 1 8
1 8 3 7 5 1 7 6 8 11 9 7 10 6 11 11 6 6 6 8 6 9
3 4 6 17 11 10 3 9 11 7 8 8 11 6 -4 7 1 2 5 2 -1 20
5 1 6 9 6 10 8 7 7 9 11 12 10 8 7 3 1 -4 9 12 17 24
-3 1 8 8 7 7 9 8 11 7 8 4 3 6 1 -7 -4 35 11 28 20 0
0 -9 9 7 9 11 11 7 6 6 7 7 4 -3 2 16 15 43 22 3 4 8
7 4 -0 9 10 7 7 7 7 3 4 0 -2 8 9 26 36 2 -7 -9 13 23
5 9 11 9 8 8 3 3 8 9 7 9 10 7 19 12 6 1 20 28 20 11
11 7 8 5 3 12 5 9 -3 2 6 10 8 18 17 7 27 33 25 13 12 14
6 4 5 9 1 3 7 12 14 14 17 22 10 15 37 22 12 18 16 14 15 17
17 -6 -0 11 14 12 7 6 10 20 5 14 27 19 15 11 24 20 17 15 15 17
6 19 12 10 6 6 11 14 10 24 20 16 10 9 3 14 29 16 15 14 13 17
Height
5748 5743 5738 5732 5725 5718 5712 5707 5702 5697 5690 5683 5676 5669 5664 5657 5650 5644 5636 5629 5621 5613
5736 5732 5727 5720 5712 5707 5702 5696 5691 5685 5679 5671 5666 5659 5652 5644 5636 5630 5622 5613 5603 5593
5729 5722 5717 5710 5703 5698 5694 5688 5682 5675 5667 5660 5653 5646 5638 5629 5622 5613 5605 5596 5586 5575
5719 5713 5707 5701 5696 5691 5685 5678 5670 5662 5655 5647 5640 5631 5623 5614 5606 5596 5587 5577 5567 5556
5707 5703 5697 5691 5686 5679 5672 5664 5656 5649 5641 5633 5625 5616 5608 5598 5589 5579 5568 5558 5548 5538
5695 5688 5683 5677 5671 5664 5658 5651 5643 5635 5627 5618 5610 5600 5590 5580 5570 5560 5549 5539 5530 5521
5683 5678 5671 5665 5658 5651 5644 5637 5629 5621 5612 5603 5593 5583 5572 5561 5551 5541 5531 5521 5512 5503
5672 5665 5660 5654 5646 5639 5631 5622 5614 5605 5595 5585 5574 5563 5552 5540 5530 5522 5512 5503 5494 5484
5660 5654 5647 5639 5632 5624 5616 5607 5598 5588 5578 5567 5556 5545 5534 5523 5513 5504 5495 5486 5477 5467
5647 5640 5632 5625 5617 5609 5600 5591 5581 5571 5561 5551 5539 5527 5517 5507 5497 5487 5477 5469 5461 5452
5633 5627 5619 5611 5603 5596 5587 5576 5566 5555 5544 5533 5522 5510 5499 5490 5480 5470 5461 5453 5445 5437
5621 5614 5605 5600 5589 5579 5571 5560 5548 5537 5526 5515 5505 5493 5483 5473 5465 5456 5447 5439 5431 5425
5606 5598 5591 5581 5572 5562 5552 5541 5528 5517 5507 5498 5489 5478 5468 5459 5450 5442 5434 5427 5420 5413
5596 5586 5575 5564 5555 5545 5533 5522 5511 5501 5490 5480 5472 5464 5454 5444 5435 5427 5420 5414 5408 5402